Find Starlink 33569

NORAD ID: 62769 Int'l Des: 2025-015 Owner: SPXS Country: US Constellation: starlink operational
LEOCIRCULAR

当前视图

正在加载3D地球...

About Starlink 33569

Starlink 33569 (NORAD 62769) is a starlink constellation satellite (v2 mini) launched Jan 21, 2025 by SPXS of US. It operates in LEO, CIRCULAR orbit with a mass of 575.00 kg.

关于 Starlink 33569

正在加载描述...

即将过境

Passes for default location (London). Set your location on the main map for personalized predictions.

高度历史

Loading altitude history...

两行轨道根数

1 62769U 25015M 26171.36595640 .00017499 00000-0 52764-3 0 9995
2 62769 53.1582 204.6654 0001079 77.5654 282.5470 15.34411986 80215
Epoch: Jun 20, 2026 • Age: 27 hours

当前状态

高度 463.9 km
速度 7.64 km/s
星下点 -2.10°S, 71.05°W
发射日期 Jan 21, 2025
运行时间 1.4 years
类型 internet

技术详情

分类 Payload
质量 575.00 kg
干质量 530.00 kg
总质量 575.00 kg
长度 0.30 m
直径 4.10 m
跨度 29.00 m
形状 Box + pan
制造商 SPXS
平台类型 Starlink V2MO
阶段状态 In Orbit
所有者/国家 SPXS/US

Most Searched